Sturgis, MI

12:17 PM EST on December 05, 2019 (GMT -0500)
Kirsch Municipal

Weather History for KIRS - October, 2019

Change the Weather History Date:

Tuesday, October 22, 2019

  Actual Average (KHAI) Record (KHAI)
Temperature  
Mean Temperature 50 °F -  
Max Temperature 54 °F 58 °F 82 °F (1953)
Min Temperature 47 °F 38 °F 25 °F (1967)
Degree Days  
Heating Degree Days 14    
Moisture  
Dew Point 40 °F    
Average Humidity 68    
Maximum Humidity 79    
Minimum Humidity 58    
Precipitation  
Precipitation 0.00 in - - ()
Sea Level Pressure  
Sea Level Pressure 29.66 in    
Wind  
Wind Speed 13 mph ()    
Max Wind Speed 25 mph    
Max Gust Speed 33 mph    
Visibility 9.9 miles    
Events Rain    
Averages and records for this station are not official NWS values.
T = Trace of Precipitation, MM = Missing Value Source: Averaged Metar Reports

Daily Weather History Graph

Daily Weather History Graph

Search for Another Location

Airport or City:

Astronomy

Oct. 22, 2019 Rise Set
Actual Time 8:01 AM EDT 6:49 PM EDT
Civil Twilight 7:33 AM EDT 7:18 PM EDT
Nautical Twilight 7:01 AM EDT 7:50 PM EDT
Astronomical Twilight 6:28 AM EDT 8:22 PM EDT
Moon 1:03 AM EDT (10/22) 4:05 PM EDT (10/22)
Length of Visible Light 11h 44m
Length of Day
10h 48m
Last Quarter, 37% of the Moon is Illuminated
Oct 22
Last Quarter
Oct 27
New
Nov 4
First Quarter
Nov 12
Full
Nov 19
Last Quarter

Hourly Weather History & Observations

Time (EDT) Temp. Dew Point Humidity Pressure Visibility Wind Dir Wind Speed Gust Speed Precip Events Conditions
12:15 AM 54.7 °F 43.0 °F 65% 29.64 in 10.0 mi WSW 9.2 mph - N/A   Overcast
12:38 AM 54.0 °F 43.2 °F 67% 29.65 in 10.0 mi SW 10.4 mph - N/A   Mostly Cloudy
12:56 AM 53.6 °F 40.6 °F 62% 29.65 in 10.0 mi WSW 10.4 mph 16.1 mph N/A   Mostly Cloudy
1:15 AM 52.7 °F 40.8 °F 64% 29.65 in 10.0 mi SW 10.4 mph - N/A   Scattered Clouds
1:16 AM 52.7 °F 40.8 °F 64% 29.65 in 10.0 mi SW 10.4 mph - N/A   Scattered Clouds
1:35 AM 52.7 °F 41.0 °F 64% 29.64 in 10.0 mi SSW 10.4 mph - N/A   Mostly Cloudy
2:17 AM 51.1 °F 41.4 °F 69% 29.64 in 10.0 mi SSW 9.2 mph - N/A   Clear
2:36 AM 50.9 °F 41.0 °F 69% 29.64 in 10.0 mi SSW 11.5 mph 16.1 mph N/A   Clear
2:55 AM 50.9 °F 40.3 °F 67% 29.63 in 10.0 mi South 9.2 mph - N/A   Clear
3:15 AM 50.5 °F 40.3 °F 68% 29.63 in 10.0 mi South 11.5 mph - N/A   Clear
3:38 AM 51.1 °F 40.1 °F 66% 29.62 in 10.0 mi SSW 12.7 mph - N/A   Clear
3:56 AM 50.7 °F 40.3 °F 67% 29.60 in 10.0 mi SSW 12.7 mph - N/A   Clear
4:15 AM 50.7 °F 40.6 °F 68% 29.60 in 10.0 mi SSW 15.0 mph - N/A   Clear
4:35 AM 50.2 °F 41.0 °F 71% 29.60 in 10.0 mi SSW 12.7 mph - N/A   Clear
4:59 AM 50.0 °F 41.0 °F 71% 29.60 in 10.0 mi SSW 10.4 mph 16.1 mph N/A   Clear
5:17 AM 50.0 °F 40.8 °F 71% 29.59 in 10.0 mi SSW 10.4 mph 16.1 mph N/A   Clear
5:35 AM 49.5 °F 40.6 °F 72% 29.60 in 10.0 mi SSW 11.5 mph 19.6 mph N/A   Clear
5:55 AM 49.5 °F 40.3 °F 71% 29.60 in 10.0 mi SSW 16.1 mph - N/A   Clear
5:56 AM 49.5 °F 40.3 °F 71% 29.60 in 10.0 mi SSW 15.0 mph - N/A   Clear
6:15 AM 49.3 °F 40.1 °F 71% 29.60 in 10.0 mi SW 11.5 mph 17.3 mph N/A   Clear
6:20 AM 49.1 °F 40.1 °F 71% 29.60 in 10.0 mi SW 10.4 mph - N/A   Clear
6:38 AM 48.6 °F 40.1 °F 73% 29.60 in 10.0 mi SW 10.4 mph - N/A   Clear
6:56 AM 48.6 °F 39.7 °F 72% 29.60 in 10.0 mi SSW 12.7 mph - N/A   Clear
7:15 AM 47.8 °F 40.1 °F 75% 29.61 in 10.0 mi SSW 9.2 mph - N/A   Clear
7:16 AM 47.8 °F 40.1 °F 75% 29.61 in 10.0 mi SSW 9.2 mph - N/A   Clear
7:35 AM 47.8 °F 40.1 °F 75% 29.61 in 10.0 mi SSW 11.5 mph - N/A   Clear
7:36 AM 47.8 °F 40.1 °F 75% 29.61 in 10.0 mi SSW 12.7 mph - N/A   Clear
7:59 AM 48.0 °F 39.7 °F 73% 29.61 in 10.0 mi SSW 13.8 mph - N/A   Scattered Clouds
8:17 AM 48.9 °F 40.1 °F 72% 29.61 in 10.0 mi SSW 15.0 mph 20.7 mph N/A   Mostly Cloudy
8:35 AM 49.5 °F 40.1 °F 70% 29.61 in 10.0 mi SSW 17.3 mph 23.0 mph N/A   Overcast
8:36 AM 49.5 °F 40.1 °F 70% 29.61 in 10.0 mi SSW 17.3 mph 23.0 mph N/A   Overcast
8:55 AM 49.3 °F 39.7 °F 70% 29.61 in 10.0 mi SW 17.3 mph 23.0 mph N/A   Mostly Cloudy
8:56 AM 49.3 °F 39.7 °F 70% 29.61 in 10.0 mi SW 18.4 mph 23.0 mph N/A   Mostly Cloudy
9:15 AM 49.3 °F 40.1 °F 71% 29.62 in 10.0 mi SW 20.7 mph 27.6 mph N/A   Mostly Cloudy
9:38 AM 50.2 °F 40.3 °F 69% 29.62 in 10.0 mi SW 18.4 mph 25.3 mph N/A   Overcast
9:55 AM 50.5 °F 40.5 °F 68% 29.62 in 10.0 mi SW 20.7 mph 26.5 mph N/A   Overcast
10:15 AM 50.5 °F 40.5 °F 68% 29.62 in 10.0 mi SW 21.9 mph 27.6 mph N/A   Overcast
10:16 AM 50.5 °F 40.5 °F 68% 29.62 in 10.0 mi SW 21.9 mph 27.6 mph N/A   Overcast
10:35 AM 50.5 °F 40.5 °F 68% 29.62 in 10.0 mi SW 21.9 mph 27.6 mph N/A   Overcast
10:59 AM 50.0 °F 41.5 °F 73% 29.62 in 10.0 mi SW 18.4 mph 29.9 mph N/A Rain Light Rain
11:17 AM 50.2 °F 41.2 °F 71% 29.62 in 10.0 mi SW 21.9 mph 26.5 mph N/A   Overcast
11:36 AM 51.6 °F 41.2 °F 68% 29.62 in 10.0 mi SW 23.0 mph 29.9 mph N/A   Overcast
11:55 AM 50.4 °F 41.9 °F 73% 29.63 in 10.0 mi SW 20.7 mph 26.5 mph N/A   Light Drizzle
11:56 AM 50.4 °F 42.3 °F 74% 29.63 in 10.0 mi SW 20.7 mph 26.5 mph N/A   Light Drizzle
12:15 PM 50.2 °F 42.8 °F 76% 29.63 in 10.0 mi SW 17.3 mph 26.5 mph N/A Rain Light Rain
12:20 PM 50.0 °F 43.0 °F 77% 29.63 in 10.0 mi SW 21.9 mph 27.6 mph N/A Rain Light Rain
12:38 PM 50.9 °F 43.9 °F 77% 29.63 in 10.0 mi SW 17.3 mph 27.6 mph N/A   Overcast
12:56 PM 50.4 °F 44.1 °F 79% 29.64 in 7.0 mi SW 19.6 mph 26.5 mph N/A Rain Light Rain
1:15 PM 52.3 °F 43.7 °F 72% 29.64 in 10.0 mi SW 21.9 mph 31.1 mph N/A   Overcast
1:16 PM 52.5 °F 43.5 °F 71% 29.64 in 10.0 mi SW 21.9 mph 31.1 mph N/A   Overcast
1:35 PM 52.2 °F 42.8 °F 70% 29.63 in 10.0 mi SW 23.0 mph 33.4 mph N/A   Overcast
1:59 PM 52.7 °F 40.6 °F 64% 29.64 in 10.0 mi WSW 19.6 mph 29.9 mph N/A   Overcast
2:17 PM 52.0 °F 39.4 °F 62% 29.64 in 10.0 mi WSW 24.2 mph 32.2 mph N/A   Overcast
2:35 PM 51.4 °F 39.6 °F 64% 29.65 in 10.0 mi WSW 20.7 mph 28.8 mph N/A   Overcast
2:36 PM 51.3 °F 39.6 °F 64% 29.65 in 10.0 mi WSW 20.7 mph 27.6 mph N/A   Overcast
2:55 PM 50.0 °F 39.4 °F 67% 29.65 in 10.0 mi WSW 23.0 mph 31.1 mph N/A Rain Rain
2:56 PM 49.8 °F 39.2 °F 67% 29.65 in 7.0 mi WSW 24.2 mph 31.1 mph N/A Rain Rain
3:15 PM 49.3 °F 43.0 °F 79% 29.66 in 10.0 mi SW 18.4 mph 28.8 mph N/A   Overcast
3:19 PM 49.3 °F 41.9 °F 76% 29.66 in 10.0 mi WSW 25.3 mph 31.1 mph N/A   Overcast
3:38 PM 48.6 °F 41.7 °F 77% 29.66 in 10.0 mi WSW 18.4 mph 32.2 mph N/A Rain Light Rain
3:56 PM 50.7 °F 39.7 °F 66% 29.67 in 10.0 mi WSW 21.9 mph 28.8 mph N/A   Overcast
4:15 PM 50.5 °F 39.6 °F 66% 29.67 in 10.0 mi WSW 17.3 mph 21.9 mph N/A   Overcast
4:35 PM 50.7 °F 38.8 °F 64% 29.68 in 10.0 mi WSW 20.7 mph - N/A   Overcast
4:36 PM 50.9 °F 38.5 °F 62% 29.68 in 10.0 mi WSW 20.7 mph - N/A   Overcast
4:58 PM 50.9 °F 38.5 °F 62% 29.69 in 10.0 mi SW 18.4 mph 28.8 mph N/A   Overcast
5:17 PM 50.2 °F 39.9 °F 68% 29.69 in 10.0 mi SW 15.0 mph 19.6 mph N/A   Overcast
5:35 PM 50.2 °F 39.6 °F 67% 29.70 in 10.0 mi SW 15.0 mph 21.9 mph N/A   Overcast
5:55 PM 50.2 °F 36.3 °F 59% 29.71 in 10.0 mi WSW 15.0 mph 21.9 mph N/A   Overcast
5:56 PM 50.2 °F 36.3 °F 59% 29.71 in 10.0 mi WSW 13.8 mph 21.9 mph N/A   Overcast
6:15 PM 50.0 °F 35.6 °F 58% 29.72 in 10.0 mi WSW 13.8 mph 21.9 mph N/A   Overcast
6:20 PM 50.0 °F 35.6 °F 58% 29.72 in 10.0 mi WSW 12.7 mph 21.9 mph N/A   Overcast
6:38 PM 50.0 °F 36.1 °F 59% 29.73 in 10.0 mi WSW 10.4 mph 17.3 mph N/A   Overcast
6:56 PM 49.6 °F 36.9 °F 61% 29.74 in 10.0 mi SW 10.4 mph - N/A   Overcast
7:15 PM 49.5 °F 37.8 °F 64% 29.74 in 10.0 mi SW 9.2 mph - N/A   Overcast
7:16 PM 49.5 °F 37.9 °F 65% 29.74 in 10.0 mi SW 9.2 mph - N/A   Overcast
7:36 PM 49.5 °F 38.7 °F 66% 29.74 in 10.0 mi SSW 8.1 mph - N/A   Overcast
7:59 PM 49.5 °F 39.6 °F 69% 29.74 in 10.0 mi SSW 8.1 mph - N/A   Overcast
8:17 PM 49.3 °F 40.1 °F 71% 29.75 in 10.0 mi SW 9.2 mph - N/A   Overcast
8:35 PM 49.6 °F 40.3 °F 70% 29.75 in 10.0 mi SW 10.4 mph - N/A   Overcast
8:36 PM 49.6 °F 40.3 °F 70% 29.75 in 10.0 mi SW 11.5 mph - N/A   Overcast
9:15 PM 49.8 °F 38.5 °F 65% 29.77 in 10.0 mi WSW 10.4 mph - N/A   Overcast
9:38 PM 49.5 °F 36.9 °F 62% 29.77 in 10.0 mi WSW 12.7 mph 18.4 mph N/A   Mostly Cloudy
9:56 PM 50.2 °F 36.3 °F 59% 29.78 in 10.0 mi West 10.4 mph 18.4 mph N/A   Mostly Cloudy
10:15 PM 50.0 °F 36.5 °F 60% 29.79 in 10.0 mi WSW 11.5 mph 16.1 mph N/A   Overcast
10:35 PM 50.0 °F 36.7 °F 60% 29.79 in 10.0 mi WSW 11.5 mph - N/A   Overcast
10:36 PM 50.0 °F 36.7 °F 60% 29.79 in 10.0 mi WSW 11.5 mph - N/A   Overcast
10:59 PM 49.5 °F 36.7 °F 61% 29.79 in 10.0 mi West 11.5 mph 17.3 mph N/A   Overcast
11:17 PM 50.0 °F 36.1 °F 59% 29.79 in 10.0 mi WSW 13.8 mph 21.9 mph N/A   Overcast
11:35 PM 49.6 °F 36.0 °F 59% 29.79 in 10.0 mi West 12.7 mph 18.4 mph N/A   Overcast
11:55 PM 49.6 °F 35.8 °F 59% 29.79 in 10.0 mi West 10.4 mph 18.4 mph N/A   Overcast